Погода в Иваново

Россия / Тюменская область     56°05′18″N   67°46′05″E
темп.,
°C
ветер,
м/с
пор.,
м/с
влажн.,
%
обл.,
%
осадки,
мм/ч
давл.,
гПа
погр.,
м
24 июня, чт
чт2423:00+10с487586 0.0 1016200
02:00+8с489599 0.1 1016215
05:00+8с49925 0.2 1017306
08:00+11с56658 0.0 1017910
11:00+12с5659100 0.1 10171468
14:00+14ссз4554100 0.0 10171572
17:00+15с4753100 0.0 10161501
20:00+13вюв2266100 0.0 101630
25 июня, пт
пт2523:00+9ю337331 0.0 101625
02:00+10юз367195 0.0 1014118
05:00+10зюз367485 0.0 1013123
08:00+14зюз33649 0.0 1012244
11:00+19зсз33495 0.0 10111215
14:00+21ссз3450100 0.0 10111984
17:00+22с3447100 0.0 10111754
20:00+19сз0161100 0.0 101112
26 июня, сб
сб2623:00+13в34720 0.0 101258
02:00+11в227943 0.0 101214
05:00+11в23875 0.0 101343
08:00+17вюв3368100 0.0 1013325
11:00+20юв2253100 0.0 1013947
14:00+23ююз2247100 0.0 10121658
17:00+23ссз1347100 0.0 10111554
20:00+19вюв3566100 0.0 101183
27 июня, вс
вс2723:00+18ююв3566100 0.0 1011137
02:00+15сз22814 0.0 101116
05:00+16юв2377100 0.0 101177
08:00+19ююв346487 0.0 1011373
11:00+24ю345086 0.0 10101196
14:00+26ююз4445100 0.0 10091826
17:00+25ююз2456100 0.0 1008591
20:00+20сз358231 2.1 100884
28 июня, пн
пн2823:00+16сз5109725 3.1 1008241
02:00+14ссв599897 0.0 1009339
05:00+14св61096100 0.1 1011561
08:00+15св71089100 0.1 1013589
11:00+19св797055 0.3 10141198
14:00+21св685396 0.1 10151908
17:00+20св476240 0.1 1017689
20:00+19св356890 0.1 101897